User: anonymous   Login
Location: Asheville, NC
(35.6000°N, 82.5500°W)
Time: 02:39:16
(UTC-04:00)
Language:

Envisat - Orbit

View from above orbital plane
View from above orbital plane
View from above satellite
View from above satellite

Ground track
Ground track

The orbit data is extracted from the following two-line orbital elements,

1 27386U 02009A   18198.72441689 -.00000019  00000-0  72957-5 0  9991
2 27386  98.1821 231.3428 0001362  96.6720  14.8108 14.37925909857913
Epoch (UTC): 17 July 2018 17:23:09
Eccentricity: 0.0001362
inclination: 98.1821°
perigee height: 764 km
apogee height: 766 km
right ascension of ascending node: 231.3428°
argument of perigee: 96.6720°
revolutions per day: 14.37925909
mean anomaly at epoch: 14.8108°
orbit number at epoch: 85791

The dashed part of the orbit path shows where the satellite is in the earth's shadow,  

DLR